星链-2170 (STARLINK-2170 )

导读

STARLINK-2170是美国太空探索技术公司(SpaceX)星链卫星互联网星座中的一颗卫星,于2021年3月4日发射入轨。星链计划旨在通过大规模低轨卫星星座,为全球提供高速互联网接入服务,该卫星是星链组网过程中的一环,服务于星座的全球覆盖与网络运营。

基本信息
目录编号:
47753
目录名称:
STARLINK-2170
国际标识:
2021-017AH
轨道中心:
EARTH
卫星名称:
星链-2170
卫星全名:
星链-2170 (STARLINK-2170 )
卫星状态:
在轨 (已飞行1931 天)
发射日期:
2021-03-04 UTC
国别 :
美国 (US)
星等 :
--
轨道信息
数据来源 国际轨道数据 AOE轨道数据
星历时间 2026-06-17T09:11:57+0800
13小时前
查看轨道信息
2026-06-17T02:00:00+0800
20小时前
查看轨道信息
半长轴 6848.861km 6848.864km
偏心率 0.000116 0.0001025
轨道倾角 53.159° 53.159°
近地点辐角 98.219° 112.757°
升交点赤经 101.676° 103.074°
平近点角 261.894° 32.385°
近地点 469.929km 470.024km
远地点 471.519km 471.43km
周期 94.013分钟 94.013分钟
每日圈数 15.317055 15.317046
详细信息
固有亮度:
5
最大亮度:
2.5
卫星平台:
Starlink V1.0
覆盖范围:
全球
运营商:
太空探索技术公司
运营商所在国:
美国
制造商(研发单位):
太空探索技术公司
制造商所在国:
美国
使用方式:
暂无
卫星简介
星链(Starlink)计划是由太空探索技术公司(SpaceX)提出的一个巨型低轨卫星互联网星座项目,计划在2019年至2024年间在太空搭建由约1.2万颗卫星组成的“星链”网络,其中1584颗将部署在地球上空550千米处的近地轨道,并从2020年开始工作。该卫星仍在工作。
2D轨道图
3D轨道图
轨道高度分析图
轨道倾角分析图
轨道综合分析图
查看轨道综合分析图